Find Starlink 11399

NORAD ID: 63063 Int'l Des: 2025-035 Owner: SPXS Country: US Constellation: starlink operational
LEOCIRCULAR

Live-Position

3D-Globus wird geladen...

Über Starlink 11399

Beschreibung wird geladen...

Nächste Überflüge

Passes for default location (London). Set your location on the main map for personalized predictions.

Höhenverlauf

Loading altitude history...

Zweizeiliger Elementsatz

1 63063U 25035M 26124.13135571 .00246500 00000-0 18640-2 0 9992
2 63063 43.0035 40.8626 0002374 283.7455 76.3148 15.70892337 69943
Epoch: 4. Mai 2026 • Age: 24 hours

Aktueller Status

Höhe 364.0 km
Geschwindigkeit 7.69 km/s
Subsatellitenpunkt -34.87°S, 5.76°W
Startdatum 21. Feb. 2025
Alter 1.1 years
Typ internet

Technische Details

Klassifizierung Payload
Masse 960.00 kg
Trockenmasse 910.00 kg
Gesamtmasse 960.00 kg
Länge 0.30 m
Durchmesser 4.10 m
Spannweite 29.00 m
Form Box + pan
Hersteller SPXS
Bus-Typ Starlink V2MD
Phasenstatus In Orbit
Besitzer/Staat SPXS/US

Most Searched